| time (UTC) | temp F | wind direction | speed MPH | gust MPH | rain 1hr in | rain 24hr in | rain mn in | humidity % | barometer mb |
| 20260906093549 | 60 | 83 | 1.0 | 8.0 | 0.00 | 0.00 | 0.00 | 82 | 1020.1 |
| 20260906093048 | 60 | 101 | 1.0 | 8.0 | 0.00 | 0.00 | 0.00 | 82 | 1020.1 |
| 20260906092549 | 60 | 98 | 2.0 | 8.0 | 0.00 | 0.00 | 0.00 | 82 | 1020.0 |
| 20260906092047 | 60 | 92 | 1.0 | 4.0 | 0.00 | 0.00 | 0.00 | 81 | 1020.0 |
| 20260906091547 | 60 | 93 | 1.0 | 4.0 | 0.00 | 0.00 | 0.00 | 81 | 1019.9 |
| 20260906091045 | 60 | 78 | 0.0 | 3.0 | 0.00 | 0.00 | 0.00 | 80 | 1019.8 |
| 20260906090544 | 61 | 98 | 1.0 | 9.0 | 0.00 | 0.00 | 0.00 | 80 | 1019.7 |
| 20260906090045 | 60 | 74 | 3.0 | 9.0 | 0.00 | 0.00 | 0.00 | 79 | 1019.7 |
| 20260906085542 | 60 | 98 | 2.0 | 6.0 | 0.00 | 0.00 | 0.00 | 79 | 1019.5 |
| 20260906085042 | 60 | 88 | 1.0 | 6.0 | 0.00 | 0.00 | 0.00 | 78 | 1019.5 |
| 20260906084542 | 60 | 89 | 1.0 | 4.0 | 0.00 | 0.00 | 0.00 | 77 | 1019.4 |
| 20260906084041 | 60 | 111 | 1.0 | 4.0 | 0.00 | 0.00 | 0.00 | 76 | 1019.3 |
| 20260906083539 | 61 | 85 | 1.0 | 4.0 | 0.00 | 0.00 | 0.00 | 75 | 1019.2 |
| 20260906083042 | 61 | 78 | 1.0 | 4.0 | 0.00 | 0.00 | 0.00 | 75 | 1019.1 |
| 20260906082537 | 61 | 103 | 0.0 | 4.0 | 0.00 | 0.00 | 0.00 | 74 | 1019.0 |
| 20260906082040 | 61 | 78 | 1.0 | 3.0 | 0.00 | 0.00 | 0.00 | 74 | 1019.0 |
| 20260906081535 | 61 | 81 | 1.0 | 3.0 | 0.00 | 0.00 | 0.00 | 73 | 1018.8 |
| 20260906081034 | 61 | 99 | 1.0 | 6.0 | 0.00 | 0.00 | 0.00 | 73 | 1018.8 |
| 20260906080533 | 61 | 100 | 2.0 | 6.0 | 0.00 | 0.00 | 0.00 | 72 | 1018.6 |
| 20260906080034 | 62 | 101 | 0.0 | 4.0 | 0.00 | 0.00 | 0.00 | 72 | 1018.6 |
| 20260906075531 | 62 | 82 | 1.0 | 4.0 | 0.00 | 0.00 | 0.00 | 71 | 1018.5 |
| 20260906075031 | 62 | 82 | 1.0 | 4.0 | 0.00 | 0.00 | 0.00 | 71 | 1018.3 |
| 20260906074530 | 62 | 81 | 1.0 | 9.0 | 0.00 | 0.00 | 0.00 | 70 | 1018.3 |
| 20260906074033 | 63 | 101 | 2.0 | 9.0 | 0.00 | 0.00 | 0.00 | 69 | 1018.2 |
| 20260906073529 | 63 | 111 | 2.0 | 9.0 | 0.00 | 0.00 | 0.00 | 69 | 1018.2 |
| 20260906073031 | 63 | 96 | 2.0 | 6.0 | 0.00 | 0.00 | 0.00 | 68 | 1018.1 |
| 20260906072527 | 63 | 78 | 2.0 | 8.0 | 0.00 | 0.00 | 0.00 | 67 | 1018.1 |
| 20260906072027 | 64 | 101 | 2.0 | 10.0 | 0.00 | 0.00 | 0.00 | 66 | 1017.9 |
| 20260906071525 | 64 | 101 | 3.0 | 10.0 | 0.00 | 0.00 | 0.00 | 64 | 1017.9 |
| 20260906071027 | 64 | 63 | 2.0 | 8.0 | 0.00 | 0.00 | 0.00 | 64 | 1017.7 |
| 20260906070523 | 64 | 88 | 1.0 | 9.0 | 0.00 | 0.00 | 0.00 | 63 | 1017.7 |
| 20260906070023 | 65 | 40 | 2.0 | 9.0 | 0.00 | 0.00 | 0.00 | 62 | 1017.6 |
| 20260906065524 | 65 | 101 | 3.0 | 10.0 | 0.00 | 0.00 | 0.00 | 62 | 1017.4 |
| 20260906065022 | 65 | 80 | 3.0 | 10.0 | 0.00 | 0.00 | 0.00 | 62 | 1017.3 |
| 20260906064521 | 65 | 76 | 2.0 | 11.0 | 0.00 | 0.00 | 0.00 | 63 | 1017.2 |
| 20260906064026 | 65 | 182 | 4.0 | 11.0 | 0.00 | 0.00 | 0.00 | 63 | 1017.2 |
| 20260906063523 | 66 | 100 | 3.0 | 9.0 | 0.00 | 0.00 | 0.00 | 62 | 1017.2 |
| 20260906063019 | 66 | 89 | 2.0 | 12.0 | 0.00 | 0.00 | 0.00 | 60 | 1017.0 |
| 20260906062518 | 66 | 100 | 3.0 | 12.0 | 0.00 | 0.00 | 0.00 | 59 | 1017.0 |
| 20260906062018 | 66 | 82 | 3.0 | 12.0 | 0.00 | 0.00 | 0.00 | 59 | 1017.0 |
| 20260906061517 | 66 | 80 | 4.0 | 12.0 | 0.00 | 0.00 | 0.00 | 57 | 1016.9 |
| 20260906061016 | 66 | 77 | 3.0 | 11.0 | 0.00 | 0.00 | 0.00 | 57 | 1016.9 |
| 20260906060517 | 67 | 90 | 2.0 | 10.0 | 0.00 | 0.00 | 0.00 | 56 | 1016.8 |
| 20260906060025 | 67 | 84 | 3.0 | 9.0 | 0.00 | 0.00 | 0.00 | 56 | 1016.8 |
| 20260906055516 | 67 | 72 | 4.0 | 9.0 | 0.00 | 0.00 | 0.00 | 56 | 1016.8 |
| 20260906055015 | 67 | 67 | 2.0 | 7.0 | 0.00 | 0.00 | 0.00 | 54 | 1016.7 |
| 20260906054528 | 67 | 117 | 2.0 | 10.0 | 0.00 | 0.00 | 0.00 | 57 | 1016.7 |
| 20260906054015 | 67 | 108 | 3.0 | 11.0 | 0.00 | 0.00 | 0.00 | 55 | 1016.7 |
| 20260906053613 | 67 | 86 | 2.0 | 11.0 | 0.00 | 0.00 | 0.00 | 55 | 1016.7 |
| 20260906053014 | 67 | 90 | 3.0 | 15.0 | 0.00 | 0.00 | 0.00 | 54 | 1016.6 |
| 20260906052514 | 67 | 360 | 4.0 | 15.0 | 0.00 | 0.00 | 0.00 | 54 | 1016.5 |
| 20260906052016 | 67 | 88 | 4.0 | 13.0 | 0.00 | 0.00 | 0.00 | 55 | 1016.6 |
| 20260906051513 | 67 | 111 | 4.0 | 13.0 | 0.00 | 0.00 | 0.00 | 53 | 1016.5 |
| 20260906051012 | 67 | 84 | 5.0 | 13.0 | 0.00 | 0.00 | 0.00 | 52 | 1016.5 |
| 20260906050512 | 67 | 163 | 5.0 | 10.0 | 0.00 | 0.00 | 0.00 | 54 | 1016.5 |
| 20260906050011 | 67 | 129 | 2.0 | 10.0 | 0.00 | 0.00 | 0.00 | 56 | 1016.5 |
| 20260906045511 | 67 | 78 | 4.0 | 15.0 | 0.00 | 0.00 | 0.00 | 55 | 1016.4 |
| 20260906045012 | 67 | 36 | 4.0 | 18.0 | 0.00 | 0.00 | 0.00 | 53 | 1016.2 |
| 20260906044512 | 68 | 85 | 5.0 | 15.0 | 0.00 | 0.00 | 0.00 | 53 | 1016.1 |
| 20260906044011 | 68 | 98 | 2.0 | 15.0 | 0.00 | 0.00 | 0.00 | 53 | 1016.2 |
| 20260906043510 | 68 | 78 | 5.0 | 17.0 | 0.00 | 0.00 | 0.00 | 50 | 1016.1 |
| 20260906043015 | 68 | 94 | 2.0 | 17.0 | 0.00 | 0.00 | 0.00 | 51 | 1016.1 |
| 20260906042509 | 68 | 73 | 4.0 | 14.0 | 0.00 | 0.00 | 0.00 | 52 | 1016.0 |
| 20260906042010 | 68 | 83 | 6.0 | 14.0 | 0.00 | 0.00 | 0.00 | 50 | 1016.1 |
| 20260906041509 | 69 | 65 | 4.0 | 11.0 | 0.00 | 0.00 | 0.00 | 49 | 1016.1 |
| 20260906041009 | 69 | 86 | 4.0 | 13.0 | 0.00 | 0.00 | 0.00 | 49 | 1016.0 |
| 20260906040509 | 69 | 94 | 4.0 | 13.0 | 0.00 | 0.00 | 0.00 | 48 | 1016.0 |
| 20260906040020 | 69 | 85 | 4.0 | 12.0 | 0.00 | 0.00 | 0.00 | 48 | 1016.0 |
| 20260906035508 | 69 | 76 | 5.0 | 12.0 | 0.00 | 0.00 | 0.00 | 47 | 1016.0 |
| 20260906035011 | 69 | 78 | 2.0 | 11.0 | 0.00 | 0.00 | 0.00 | 47 | 1016.0 |
| 20260906034514 | 69 | 70 | 4.0 | 14.0 | 0.00 | 0.00 | 0.00 | 47 | 1015.9 |
| 20260906034008 | 70 | 91 | 5.0 | 14.0 | 0.00 | 0.00 | 0.00 | 45 | 1015.9 |
| 20260906033508 | 70 | 100 | 5.0 | 12.0 | 0.00 | 0.00 | 0.00 | 45 | 1015.9 |
| 20260906033028 | 70 | 64 | 5.0 | 9.0 | 0.00 | 0.00 | 0.00 | 46 | 1015.9 |
| 20260906032508 | 70 | 113 | 2.0 | 11.0 | 0.00 | 0.00 | 0.00 | 46 | 1015.8 |
| 20260906032008 | 70 | 59 | 3.0 | 11.0 | 0.00 | 0.00 | 0.00 | 45 | 1015.8 |
| 20260906031509 | 70 | 51 | 2.0 | 10.0 | 0.00 | 0.00 | 0.00 | 45 | 1015.8 |
| 20260906031007 | 70 | 136 | 3.0 | 10.0 | 0.00 | 0.00 | 0.00 | 45 | 1015.6 |
| 20260906030507 | 70 | 64 | 3.0 | 9.0 | 0.00 | 0.00 | 0.00 | 44 | 1015.8 |
| 20260906030007 | 71 | 51 | 3.0 | 13.0 | 0.00 | 0.00 | 0.00 | 45 | 1015.7 |
| 20260906025506 | 71 | 115 | 3.0 | 13.0 | 0.00 | 0.00 | 0.00 | 42 | 1015.7 |
| 20260906025006 | 71 | 80 | 3.0 | 8.0 | 0.00 | 0.00 | 0.00 | 42 | 1015.7 |
| 20260906024506 | 71 | 92 | 2.0 | 9.0 | 0.00 | 0.00 | 0.00 | 40 | 1015.8 |
| 20260906024005 | 71 | 77 | 4.0 | 14.0 | 0.00 | 0.00 | 0.00 | 40 | 1015.9 |
| 20260906023505 | 71 | 95 | 4.0 | 14.0 | 0.00 | 0.00 | 0.00 | 42 | 1015.8 |
| 20260906023004 | 71 | 94 | 3.0 | 10.0 | 0.00 | 0.00 | 0.00 | 39 | 1015.9 |
| 20260906022504 | 72 | 23 | 3.0 | 9.0 | 0.00 | 0.00 | 0.00 | 41 | 1015.9 |
| 20260906022004 | 71 | 230 | 1.0 | 10.0 | 0.00 | 0.00 | 0.00 | 42 | 1015.8 |
| 20260906021504 | 70 | 86 | 3.0 | 10.0 | 0.00 | 0.00 | 0.00 | 42 | 1015.9 |
| 20260906021003 | 70 | 67 | 2.0 | 8.0 | 0.00 | 0.00 | 0.00 | 42 | 1015.9 |
| 20260906020502 | 70 | 130 | 1.0 | 9.0 | 0.00 | 0.00 | 0.00 | 42 | 1016.0 |
| 20260906020000 | 70 | 209 | 4.0 | 13.0 | 0.00 | 0.00 | 0.00 | 41 | 1016.0 |
| 20260906015600 | 70 | 186 | 6.0 | 13.0 | 0.00 | 0.00 | 0.00 | 41 | 1016.2 |
| 20260906015103 | 70 | 194 | 5.0 | 12.0 | 0.00 | 0.00 | 0.00 | 41 | 1016.2 |
| 20260906014600 | 70 | 113 | 2.0 | 10.0 | 0.00 | 0.00 | 0.00 | 42 | 1016.0 |
| 20260906014059 | 69 | 149 | 4.0 | 11.0 | 0.00 | 0.00 | 0.00 | 42 | 1016.1 |
| 20260906013602 | 69 | 142 | 4.0 | 14.0 | 0.00 | 0.00 | 0.00 | 41 | 1016.0 |
| 20260906013104 | 69 | 147 | 4.0 | 13.0 | 0.00 | 0.00 | 0.00 | 41 | 1016.3 |
| 20260906012557 | 69 | 149 | 3.0 | 10.0 | 0.00 | 0.00 | 0.00 | 41 | 1016.3 |
| 20260906012057 | 69 | 132 | 5.0 | 11.0 | 0.00 | 0.00 | 0.00 | 41 | 1016.2 |
| 20260906011557 | 69 | 169 | 3.0 | 13.0 | 0.00 | 0.00 | 0.00 | 41 | 1016.2 |
| 20260906011055 | 69 | 179 | 5.0 | 12.0 | 0.00 | 0.00 | 0.00 | 42 | 1016.2 |
| 20260906010555 | 69 | 92 | 4.0 | 10.0 | 0.00 | 0.00 | 0.00 | 42 | 1016.1 |
| 20260906010054 | 69 | 146 | 3.0 | 15.0 | 0.00 | 0.00 | 0.00 | 43 | 1016.1 |
| 20260906005554 | 69 | 192 | 7.0 | 15.0 | 0.00 | 0.00 | 0.00 | 42 | 1016.1 |
| 20260906005054 | 69 | 210 | 3.0 | 9.0 | 0.00 | 0.00 | 0.00 | 43 | 1016.1 |
| 20260906004554 | 69 | 211 | 3.0 | 12.0 | 0.00 | 0.00 | 0.00 | 43 | 1016.0 |
| 20260906004053 | 68 | 221 | 2.0 | 12.0 | 0.00 | 0.00 | 0.00 | 44 | 1016.0 |
| 20260906003553 | 68 | 261 | 4.0 | 9.0 | 0.00 | 0.00 | 0.00 | 44 | 1015.9 |
| 20260906003054 | 68 | 257 | 4.0 | 14.0 | 0.00 | 0.00 | 0.00 | 44 | 1016.1 |
| 20260906002556 | 68 | 269 | 4.0 | 14.0 | 0.00 | 0.00 | 0.00 | 46 | 1016.0 |
| 20260906002052 | 67 | 225 | 4.0 | 10.0 | 0.00 | 0.00 | 0.00 | 45 | 1015.8 |
| 20260906001551 | 67 | 207 | 4.0 | 10.0 | 0.00 | 0.00 | 0.00 | 44 | 1015.9 |
| 20260906001051 | 67 | 219 | 4.0 | 10.0 | 0.00 | 0.00 | 0.00 | 44 | 1016.0 |
| 20260906000553 | 67 | 241 | 4.0 | 13.0 | 0.00 | 0.00 | 0.00 | 46 | 1015.9 |
| 20260906000051 | 67 | 259 | 4.0 | 10.0 | 0.00 | 0.00 | 0.00 | 46 | 1015.8 |
| 20260905235550 | 66 | 242 | 3.0 | 10.0 | 0.00 | 0.00 | 0.00 | 45 | 1015.9 |
| 20260905235050 | 66 | 243 | 3.0 | 13.0 | 0.00 | 0.00 | 0.00 | 46 | 1015.7 |
| 20260905234550 | 66 | 238 | 4.0 | 12.0 | 0.00 | 0.00 | 0.00 | 45 | 1015.8 |
| 20260905234050 | 66 | 216 | 4.0 | 8.0 | 0.00 | 0.00 | 0.00 | 47 | 1015.8 |
| 20260905233549 | 65 | 211 | 5.0 | 10.0 | 0.00 | 0.00 | 0.00 | 46 | 1015.7 |
| 20260905233057 | 65 | 229 | 4.0 | 17.0 | 0.00 | 0.00 | 0.00 | 46 | 1015.7 |
| 20260905232548 | 66 | 186 | 7.0 | 16.0 | 0.00 | 0.00 | 0.00 | 45 | 1016.0 |
| 20260905232048 | 66 | 247 | 2.0 | 12.0 | 0.00 | 0.00 | 0.00 | 49 | 1015.8 |
| 20260905231547 | 65 | 240 | 4.0 | 12.0 | 0.00 | 0.00 | 0.00 | 47 | 1015.6 |
| 20260905231046 | 65 | 332 | 3.0 | 11.0 | 0.00 | 0.00 | 0.00 | 49 | 1015.6 |
| 20260905230546 | 64 | 248 | 5.0 | 15.0 | 0.00 | 0.00 | 0.00 | 48 | 1015.5 |
| 20260905230046 | 64 | 270 | 6.0 | 15.0 | 0.00 | 0.00 | 0.00 | 47 | 1015.5 |
| 20260905225545 | 64 | 250 | 7.0 | 14.0 | 0.00 | 0.00 | 0.00 | 48 | 1015.4 |
| 20260905225045 | 64 | 235 | 4.0 | 10.0 | 0.00 | 0.00 | 0.00 | 49 | 1015.4 |
| 20260905224609 | 64 | 221 | 3.0 | 12.0 | 0.00 | 0.00 | 0.00 | 50 | 1015.4 |
| 20260905224043 | 64 | 221 | 6.0 | 13.0 | 0.00 | 0.00 | 0.00 | 50 | 1015.3 |
| 20260905223544 | 64 | 245 | 5.0 | 13.0 | 0.00 | 0.00 | 0.00 | 51 | 1015.3 |
| 20260905223046 | 63 | 259 | 5.0 | 12.0 | 0.00 | 0.00 | 0.00 | 50 | 1015.3 |
| 20260905222545 | 63 | 276 | 5.0 | 12.0 | 0.00 | 0.00 | 0.00 | 49 | 1015.2 |
| 20260905222046 | 63 | 212 | 4.0 | 14.0 | 0.00 | 0.00 | 0.00 | 51 | 1015.2 |
| 20260905221542 | 63 | 261 | 8.0 | 14.0 | 0.00 | 0.00 | 0.00 | 49 | 1015.1 |
| 20260905221041 | 63 | 231 | 7.0 | 13.0 | 0.00 | 0.00 | 0.00 | 49 | 1015.1 |
| 20260905220541 | 63 | 241 | 4.0 | 13.0 | 0.00 | 0.00 | 0.00 | 50 | 1015.0 |
| 20260905220041 | 63 | 225 | 7.0 | 14.0 | 0.00 | 0.00 | 0.00 | 50 | 1014.9 |
| 20260905215541 | 62 | 252 | 7.0 | 15.0 | 0.00 | 0.00 | 0.00 | 50 | 1014.9 |
| 20260905215039 | 62 | 254 | 7.0 | 15.0 | 0.00 | 0.00 | 0.00 | 50 | 1015.1 |
| 20260905214546 | 62 | 306 | 4.0 | 14.0 | 0.00 | 0.00 | 0.00 | 50 | 1014.8 |
| 20260905214038 | 62 | 251 | 5.0 | 16.0 | 0.00 | 0.00 | 0.00 | 50 | 1014.8 |
| 20260905213540 | 62 | 252 | 5.0 | 16.0 | 0.00 | 0.00 | 0.00 | 50 | 1014.5 |
| 20260905213038 | 62 | 259 | 5.0 | 15.0 | 0.00 | 0.00 | 0.00 | 50 | 1014.4 |
| 20260905212537 | 62 | 254 | 6.0 | 15.0 | 0.00 | 0.00 | 0.00 | 49 | 1014.4 |
| 20260905212039 | 62 | 244 | 5.0 | 11.0 | 0.00 | 0.00 | 0.00 | 49 | 1014.6 |
| 20260905211543 | 62 | 290 | 4.0 | 12.0 | 0.00 | 0.00 | 0.00 | 50 | 1014.6 |
| 20260905211034 | 62 | 239 | 5.0 | 12.0 | 0.00 | 0.00 | 0.00 | 49 | 1014.5 |
| 20260905210533 | 62 | 287 | 3.0 | 14.0 | 0.00 | 0.00 | 0.00 | 49 | 1014.4 |
| 20260905210041 | 62 | 259 | 6.0 | 14.0 | 0.00 | 0.00 | 0.00 | 48 | 1014.3 |
| 20260905205533 | 62 | 234 | 7.0 | 12.0 | 0.00 | 0.00 | 0.00 | 49 | 1014.0 |
| 20260905205033 | 62 | 237 | 5.0 | 13.0 | 0.00 | 0.00 | 0.00 | 49 | 1013.8 |
| 20260905204530 | 62 | 240 | 7.0 | 15.0 | 0.00 | 0.00 | 0.00 | 48 | 1013.7 |
| 20260905204029 | 62 | 279 | 6.0 | 11.0 | 0.00 | 0.00 | 0.00 | 49 | 1013.7 |
| 20260905203528 | 62 | 254 | 4.0 | 10.0 | 0.00 | 0.00 | 0.00 | 49 | 1013.9 |
| 20260905203027 | 62 | 244 | 3.0 | 10.0 | 0.00 | 0.00 | 0.00 | 49 | 1013.6 |
| 20260905202527 | 62 | 235 | 6.0 | 10.0 | 0.00 | 0.00 | 0.00 | 50 | 1013.4 |
| 20260905202025 | 62 | 261 | 5.0 | 10.0 | 0.00 | 0.00 | 0.00 | 50 | 1013.5 |
| 20260905201523 | 62 | 250 | 4.0 | 10.0 | 0.00 | 0.00 | 0.00 | 49 | 1013.5 |
| 20260905201021 | 63 | 235 | 5.0 | 11.0 | 0.00 | 0.00 | 0.00 | 47 | 1013.3 |
| 20260905200527 | 63 | 229 | 4.0 | 14.0 | 0.00 | 0.00 | 0.00 | 45 | 1013.1 |
| 20260905200026 | 63 | 240 | 6.0 | 15.0 | 0.00 | 0.00 | 0.00 | 44 | 1012.9 |
| 20260905195518 | 64 | 273 | 5.0 | 15.0 | 0.00 | 0.00 | 0.00 | 43 | 1012.9 |
| 20260905195018 | 64 | 227 | 5.0 | 17.0 | 0.00 | 0.00 | 0.00 | 43 | 1013.1 |
| 20260905194519 | 64 | 219 | 5.0 | 13.0 | 0.00 | 0.00 | 0.00 | 43 | 1013.1 |
| 20260905194016 | 64 | 261 | 7.0 | 15.0 | 0.00 | 0.00 | 0.00 | 43 | 1013.0 |
| 20260905193514 | 64 | 261 | 7.0 | 15.0 | 0.00 | 0.00 | 0.00 | 43 | 1012.7 |
| 20260905193014 | 64 | 253 | 5.0 | 17.0 | 0.00 | 0.00 | 0.00 | 44 | 1012.5 |
| 20260905192512 | 65 | 246 | 7.0 | 25.0 | 0.00 | 0.00 | 0.00 | 43 | 1012.4 |
| 20260905192011 | 64 | 281 | 8.0 | 17.0 | 0.00 | 0.00 | 0.00 | 47 | 1012.0 |
| 20260905191509 | 64 | 269 | 5.0 | 18.0 | 0.00 | 0.00 | 0.00 | 48 | 1011.7 |
| 20260905191008 | 65 | 256 | 7.0 | 18.0 | 0.00 | 0.00 | 0.00 | 47 | 1011.4 |
| 20260905190507 | 65 | 246 | 9.0 | 16.0 | 0.00 | 0.00 | 0.00 | 46 | 1011.2 |
| 20260905190006 | 65 | 298 | 7.0 | 18.0 | 0.00 | 0.00 | 0.00 | 45 | 1011.1 |
| 20260905185504 | 66 | 213 | 9.0 | 23.0 | 0.00 | 0.00 | 0.00 | 42 | 1011.2 |
| 20260905185003 | 66 | 273 | 10.0 | 23.0 | 0.00 | 0.00 | 0.00 | 42 | 1010.9 |
| 20260905184506 | 66 | 240 | 8.0 | 18.0 | 0.00 | 0.00 | 0.00 | 42 | 1011.0 |
| 20260905184002 | 66 | 233 | 8.0 | 17.0 | 0.00 | 0.00 | 0.00 | 44 | 1011.0 |
| 20260905183503 | 66 | 288 | 8.0 | 15.0 | 0.00 | 0.00 | 0.00 | 48 | 1010.8 |
| 20260905183101 | 66 | 257 | 6.0 | 11.0 | 0.00 | 0.00 | 0.00 | 51 | 1010.7 |
| 20260905182559 | 66 | 245 | 6.0 | 17.0 | 0.00 | 0.00 | 0.00 | 50 | 1010.7 |
| 20260905182058 | 66 | 284 | 7.0 | 17.0 | 0.00 | 0.00 | 0.00 | 49 | 1010.8 |
| 20260905181557 | 66 | 238 | 5.0 | 13.0 | 0.00 | 0.00 | 0.00 | 48 | 1010.9 |
| 20260905181055 | 67 | 201 | 5.0 | 13.0 | 0.00 | 0.00 | 0.00 | 48 | 1010.9 |
| 20260905180556 | 67 | 207 | 5.0 | 17.0 | 0.00 | 0.00 | 0.00 | 48 | 1011.1 |
| 20260905175552 | 68 | 317 | 4.0 | 10.0 | 0.00 | 0.00 | 0.00 | 48 | 1011.3 |
| 20260905175054 | 68 | 242 | 4.0 | 11.0 | 0.00 | 0.00 | 0.00 | 49 | 1011.1 |
| 20260905174549 | 68 | 249 | 3.0 | 10.0 | 0.00 | 0.00 | 0.00 | 49 | 1011.1 |
| 20260905174049 | 68 | 257 | 4.0 | 11.0 | 0.00 | 0.00 | 0.00 | 49 | 1011.1 |
| 20260905173548 | 68 | 242 | 3.0 | 18.0 | 0.00 | 0.00 | 0.00 | 49 | 1011.0 |
| 20260905173149 | 69 | 252 | 5.0 | 18.0 | 0.00 | 0.00 | 0.00 | 49 | 1010.8 |
| 20260905172545 | 69 | 204 | 7.0 | 17.0 | 0.00 | 0.00 | 0.00 | 50 | 1010.7 |
| 20260905172045 | 69 | 261 | 7.0 | 23.0 | 0.00 | 0.00 | 0.00 | 49 | 1010.5 |
| 20260905171545 | 69 | 245 | 10.0 | 26.0 | 0.00 | 0.00 | 0.00 | 49 | 1010.5 |
| 20260905171042 | 69 | 242 | 10.0 | 26.0 | 0.00 | 0.00 | 0.00 | 51 | 1010.5 |
| 20260905170541 | 69 | 243 | 5.0 | 11.0 | 0.00 | 0.00 | 0.00 | 55 | 1010.4 |
| 20260905170044 | 70 | 236 | 5.0 | 17.0 | 0.00 | 0.00 | 0.00 | 55 | 1010.4 |
| 20260905165539 | 70 | 234 | 8.0 | 17.0 | 0.00 | 0.00 | 0.00 | 54 | 1010.3 |
| 20260905165039 | 70 | 227 | 5.0 | 16.0 | 0.00 | 0.00 | 0.00 | 55 | 1010.2 |
| 20260905164537 | 70 | 189 | 6.0 | 16.0 | 0.00 | 0.00 | 0.00 | 56 | 1010.1 |
| 20260905164037 | 70 | 195 | 5.0 | 15.0 | 0.00 | 0.00 | 0.00 | 56 | 1010.1 |
| 20260905163538 | 70 | 187 | 3.0 | 11.0 | 0.00 | 0.00 | 0.00 | 57 | 1010.0 |
| 20260905163035 | 70 | 188 | 3.0 | 11.0 | 0.00 | 0.00 | 0.00 | 56 | 1010.0 |
| 20260905162534 | 70 | 245 | 5.0 | 14.0 | 0.00 | 0.00 | 0.00 | 56 | 1009.9 |
| 20260905162033 | 70 | 220 | 4.0 | 14.0 | 0.00 | 0.00 | 0.00 | 57 | 1009.9 |
| 20260905161534 | 70 | 236 | 5.0 | 13.0 | 0.00 | 0.00 | 0.00 | 56 | 1009.9 |
| 20260905161031 | 70 | 207 | 6.0 | 13.0 | 0.00 | 0.00 | 0.00 | 56 | 1009.8 |
| 20260905160530 | 70 | 227 | 6.0 | 11.0 | 0.00 | 0.00 | 0.00 | 57 | 1009.8 |
| 20260905160028 | 70 | 224 | 5.0 | 11.0 | 0.00 | 0.00 | 0.00 | 57 | 1009.6 |
| 20260905155530 | 71 | 251 | 5.0 | 12.0 | 0.00 | 0.00 | 0.00 | 56 | 1009.5 |
| 20260905155026 | 71 | 267 | 6.0 | 12.0 | 0.00 | 0.00 | 0.00 | 56 | 1009.4 |
| 20260905154526 | 71 | 227 | 4.0 | 13.0 | 0.00 | 0.00 | 0.00 | 56 | 1009.4 |
| 20260905154032 | 71 | 238 | 5.0 | 13.0 | 0.00 | 0.00 | 0.00 | 56 | 1009.4 |
| 20260905153525 | 71 | 207 | 4.0 | 12.0 | 0.00 | 0.00 | 0.00 | 56 | 1009.3 |
| 20260905153025 | 71 | 279 | 6.0 | 12.0 | 0.00 | 0.00 | 0.00 | 56 | 1009.2 |
| 20260905152525 | 71 | 288 | 4.0 | 12.0 | 0.00 | 0.00 | 0.00 | 56 | 1009.2 |
| 20260905152022 | 71 | 238 | 5.0 | 12.0 | 0.00 | 0.00 | 0.00 | 56 | 1009.2 |
| 20260905151522 | 71 | 277 | 6.0 | 11.0 | 0.00 | 0.00 | 0.00 | 56 | 1009.2 |
| 20260905151020 | 71 | 288 | 5.0 | 9.0 | 0.00 | 0.00 | 0.00 | 57 | 1009.3 |
| 20260905150523 | 71 | 244 | 5.0 | 14.0 | 0.00 | 0.00 | 0.00 | 56 | 1009.2 |
| 20260905150020 | 71 | 257 | 6.0 | 14.0 | 0.00 | 0.00 | 0.00 | 56 | 1009.3 |
| 20260905145519 | 71 | 281 | 8.0 | 15.0 | 0.00 | 0.00 | 0.00 | 56 | 1009.2 |
| 20260905145019 | 71 | 266 | 4.0 | 14.0 | 0.00 | 0.00 | 0.00 | 57 | 1009.2 |
| 20260905144523 | 71 | 237 | 5.0 | 14.0 | 0.00 | 0.00 | 0.00 | 57 | 1009.2 |
| 20260905144017 | 71 | 254 | 4.0 | 7.0 | 0.00 | 0.00 | 0.00 | 56 | 1009.1 |
| 20260905143516 | 72 | 231 | 2.0 | 9.0 | 0.00 | 0.00 | 0.00 | 55 | 1009.2 |
| 20260905143018 | 72 | 246 | 4.0 | 10.0 | 0.00 | 0.00 | 0.00 | 55 | 1009.1 |
| 20260905142515 | 72 | 241 | 5.0 | 10.0 | 0.00 | 0.00 | 0.00 | 55 | 1009.1 |
| 20260905142014 | 72 | 298 | 4.0 | 10.0 | 0.00 | 0.00 | 0.00 | 55 | 1008.9 |
| 20260905141512 | 72 | 271 | 3.0 | 8.0 | 0.00 | 0.00 | 0.00 | 56 | 1008.9 |